Location: Mount Cross
(36.6390°N, 79.4878°W)
Time: 19:25:01
(UTC+00:00)

Courier 1B Rocket - Pass Details

Date: 25 March 2023
Orbit: 920 x 1202 km, 28.2° (Epoch: 08 June)

Event Time Altitude Azimuth Distance (km) Brightness Sun altitude
Rises 00:10:40 0° 218° (SW) 3,891 8.6 -8.3°
Reaches altitude 10° 00:14:17 10° 202° (SSW) 2,881 7.6 -9.0°
Maximum altitude 00:19:06 20° 158° (SSE) 2,175 6.5 -10.0°
Enters shadow 00:23:09 12° 118° (ESE) 2,616 6.6 -10.8°
Drops below altitude 10° 00:23:43 10° 114° (ESE) 2,743 - -10.9°
Sets 00:27:03 0° 98° (E) 3,648 - -11.6°
